Weather History for Zvartnots, Armenia

Change the Weather History Date:

Thursday, February 7, 2013

  Actual Average Record
Temperature  
Mean Temperature 34 °F -  
Max Temperature 37 °F - - ()
Min Temperature 32 °F - - ()
Degree Days  
Heating Degree Days 30    
Moisture  
Dew Point 34 °F    
Average Humidity 96    
Maximum Humidity 100    
Minimum Humidity 75    
Precipitation  
Precipitation 0.00 in - - ()
Sea Level Pressure  
Sea Level Pressure 30.11 in    
Wind  
Wind Speed 1 mph ()    
Max Wind Speed 4 mph    
Max Gust Speed -    
Visibility 0.9 miles    
Events Fog , Rain , Snow    
T = Trace of Precipitation, MM = Missing Value Source: Averaged Metar Reports

Daily Weather History Graph

Daily Weather History Graph

Search for Another Location

Airport:

Trip Planner

Search our weather history database for the weather conditions in past years. The results will help you decide how hot, cold, wet, or windy it might be!

Date:

Astronomy

Feb. 07, 2013 Rise Set
Actual Time 8:05 AM AMT 6:28 PM AMT
Civil Twilight 7:36 AM AMT 6:56 PM AMT
Nautical Twilight 7:04 AM AMT 7:28 PM AMT
Astronomical Twilight 6:33 AM AMT 8:00 PM AMT
Moon 5:24 AM AMT (2/7) 3:27 PM AMT (2/7)
Length of Visible Light 11h 19m
Length of Day
10h 23m
Waning Crescent, 12% of the Moon is Illuminated
Feb 7
Waning Crescent
Feb 10
New
Feb 18
First Quarter
Feb 26
Full
Mar 5
Last Quarter

Hourly Weather History & Observations

Time (AMT) Temp. Windchill Dew Point Humidity Pressure Visibility Wind Dir Wind Speed Gust Speed Precip Events Conditions
12:00 AM 37.4 °F 33.9 °F 30.2 °F 75% 30.12 in 2.2 mi Variable 4.5 mph - N/A   Mostly Cloudy
12:30 AM 35.6 °F - 32.0 °F 87% 30.09 in 2.2 mi Calm Calm - N/A Rain Light Rain
1:00 AM 35.6 °F - 32.0 °F 87% 30.09 in 2.2 mi Variable 2.2 mph - N/A Rain Light Rain
1:30 AM 35.6 °F 31.8 °F 33.8 °F 93% 30.06 in 2.2 mi Variable 4.5 mph - N/A Rain Light Rain
2:00 AM 35.6 °F - 33.8 °F 93% 30.06 in 2.2 mi Calm Calm - N/A Rain Light Rain
2:30 AM 35.6 °F 31.8 °F 33.8 °F 93% 30.06 in 1.4 mi Variable 4.5 mph - N/A   Mostly Cloudy
3:00 AM 35.6 °F - 33.8 °F 93% 30.06 in 1.4 mi Variable 2.2 mph - N/A Rain Light Rain
3:30 AM 33.8 °F - 33.8 °F 100% 30.06 in 1.2 mi Variable 2.2 mph - N/A Rain Light Rain
4:00 AM 33.8 °F - 33.8 °F 100% 30.06 in 1.2 mi Calm Calm - N/A Rain Light Rain
4:30 AM 33.8 °F - 33.8 °F 100% 30.06 in 1.2 mi Calm Calm - N/A Rain Light Rain
5:00 AM 33.8 °F - 33.8 °F 100% 30.04 in 1.2 mi Calm Calm - N/A Rain Light Rain
5:30 AM 33.8 °F - 33.8 °F 100% 30.06 in 0.6 mi Calm Calm - N/A Rain Light Rain
6:00 AM 32.0 °F - 32.0 °F 100% 30.06 in 0.3 mi Variable 2.2 mph - N/A Fog , Snow Light Snow
6:30 AM 32.0 °F - 32.0 °F 100% 30.06 in 0.2 mi Calm Calm - N/A Fog , Snow Light Snow
7:00 AM 32.0 °F - 32.0 °F 100% 30.06 in 0.2 mi Calm Calm - N/A Fog , Snow Light Snow
7:30 AM 32.0 °F - 32.0 °F 100% 30.06 in 0.2 mi Calm Calm - N/A Fog , Snow Light Snow
8:00 AM 32.0 °F - 32.0 °F 100% 30.06 in 0.1 mi Calm Calm - N/A Fog , Snow Light Snow
8:30 AM 32.0 °F - 32.0 °F 100% 30.09 in 0.2 mi Calm Calm - N/A Fog , Snow Light Snow
9:00 AM 32.0 °F - 32.0 °F 100% 30.09 in 0.2 mi Calm Calm - N/A Fog , Snow Light Snow
9:30 AM 33.8 °F - 32.0 °F 93% 30.09 in 0.2 mi Calm Calm - N/A Fog , Snow Light Snow
10:00 AM 33.8 °F - 33.8 °F 100% 30.09 in 0.1 mi Calm Calm - N/A Fog , Snow Light Snow
10:30 AM 33.8 °F - 33.8 °F 100% 30.09 in 0.2 mi Calm Calm - N/A Fog , Snow Light Snow
11:00 AM 33.8 °F - 33.8 °F 100% 30.09 in 0.4 mi Calm Calm - N/A Fog , Snow Light Snow
11:30 AM 35.6 °F - 35.6 °F 100% 30.12 in 0.5 mi Calm Calm - N/A Fog , Snow Light Snow
12:00 PM 37.4 °F - 35.6 °F 93% 30.12 in 0.6 mi Calm Calm - N/A Fog , Snow Light Snow
12:30 PM 35.6 °F - 33.8 °F 93% 30.12 in 1.0 mi Calm Calm - N/A Snow Light Snow
1:00 PM 35.6 °F - 33.8 °F 93% 30.09 in 0.9 mi Calm Calm - N/A Snow Light Snow
1:30 PM 35.6 °F - 33.8 °F 93% 30.09 in 0.9 mi Calm Calm - N/A   Mostly Cloudy
2:00 PM 33.8 °F 29.7 °F 33.8 °F 100% 30.12 in 0.7 mi Variable 4.5 mph - N/A   Mostly Cloudy
2:30 PM 35.6 °F - 33.8 °F 93% 30.12 in 1.1 mi Calm Calm - N/A   Mostly Cloudy
3:00 PM 35.6 °F - 33.8 °F 93% 30.12 in 1.1 mi Calm Calm - N/A   Mostly Cloudy
3:30 PM 35.6 °F - 33.8 °F 93% 30.12 in 1.1 mi Calm Calm - N/A   Mostly Cloudy
4:00 PM 35.6 °F - 33.8 °F 93% 30.12 in 1.2 mi Calm Calm - N/A   Mostly Cloudy
4:30 PM 37.4 °F - 35.6 °F 93% 30.12 in 1.2 mi Calm Calm - N/A   Mostly Cloudy
5:00 PM 37.4 °F - 35.6 °F 93% 30.12 in 1.2 mi Calm Calm - N/A   Mostly Cloudy
5:30 PM 37.4 °F - 33.8 °F 87% 30.12 in 1.2 mi Calm Calm - N/A   Mostly Cloudy
6:00 PM 37.4 °F - 35.6 °F 93% 30.12 in 1.2 mi Calm Calm - N/A   Mostly Cloudy
6:30 PM 35.6 °F - 33.8 °F 93% 30.15 in 1.2 mi Calm Calm - N/A   Mostly Cloudy
7:00 PM 33.8 °F - 33.8 °F 100% 30.15 in 0.7 mi Variable 2.2 mph - N/A   Mostly Cloudy
7:30 PM 33.8 °F - 33.8 °F 100% 30.18 in 0.6 mi Calm Calm - N/A   Mostly Cloudy
8:00 PM 33.8 °F - 33.8 °F 100% 30.18 in 0.5 mi Calm Calm - N/A Fog Fog
8:30 PM 33.8 °F - 33.8 °F 100% 30.18 in 0.6 mi Calm Calm - N/A Fog Fog
9:00 PM 33.8 °F - 33.8 °F 100% 30.18 in 0.5 mi Calm Calm - N/A Fog Fog
9:30 PM 33.8 °F 29.7 °F 33.8 °F 100% 30.18 in 0.6 mi West 4.5 mph - N/A Fog Fog
10:00 PM 33.8 °F - 33.8 °F 100% 30.21 in 0.6 mi Calm Calm - N/A Fog Fog
10:30 PM 33.8 °F - 33.8 °F 100% 30.21 in 0.4 mi Calm Calm - N/A Fog Fog
11:00 PM 33.8 °F - 33.8 °F 100% 30.21 in 0.4 mi Calm Calm - N/A Fog Fog
11:30 PM 33.8 °F - 33.8 °F 100% 30.21 in 0.6 mi Calm Calm - N/A Fog Fog